Total_Precipitation_Accumulation
0.25 0.33 0.72 0.97 0.98 0.90 0.86 0.80 0.73 0.70 0.70 0.72 0.73 0.68 0.61 0.57 0.54 0.52 0.55 0.58 0.71 0.82 0.90 0.95 1.01 1.06 1.03 0.90 0.67 0.45 0.34 0.31 0.27 0.22 0.23 0.25 0.31 0.36 0.37 0.37 0.38 0.47 0.62
0.22 0.35 0.71 0.96 1.00 0.90 0.82 0.80 0.77 0.73 0.73 0.76 0.85 0.83 0.73 0.68 0.69 0.69 0.71 0.73 0.81 0.92 1.01 1.04 1.09 1.08 0.98 0.79 0.54 0.35 0.21 0.15 0.10 0.07 0.07 0.10 0.19 0.30 0.31 0.29 0.31 0.48 0.59
0.27 0.42 0.70 0.97 0.99 0.94 0.85 0.79 0.77 0.76 0.81 0.85 0.88 0.92 0.87 0.82 0.79 0.85 0.87 0.85 0.89 0.94 1.03 1.09 1.05 1.01 0.86 0.63 0.43 0.31 0.20 0.13 0.09 0.06 0.10 0.16 0.26 0.40 0.38 0.33 0.41 0.52 0.58
0.38 0.47 0.66 0.94 1.04 1.02 0.93 0.84 0.83 0.85 0.85 0.94 0.97 1.01 1.06 1.00 0.93 0.93 0.93 0.91 0.88 0.89 0.92 0.90 0.78 0.71 0.63 0.49 0.40 0.30 0.21 0.14 0.10 0.10 0.17 0.25 0.35 0.58 0.56 0.49 0.50 0.53 0.54
0.56 0.58 0.79 1.04 1.16 1.18 1.09 0.98 0.97 1.00 0.98 1.01 1.07 1.16 1.23 1.22 1.09 1.01 0.93 0.91 0.85 0.81 0.69 0.63 0.55 0.50 0.46 0.39 0.35 0.27 0.18 0.12 0.10 0.11 0.16 0.25 0.45 0.78 0.64 0.55 0.54 0.56 0.55
0.69 0.77 1.00 1.26 1.40 1.45 1.33 1.21 1.17 1.16 1.13 1.13 1.11 1.16 1.28 1.38 1.30 1.13 0.94 0.80 0.72 0.69 0.62 0.50 0.44 0.43 0.40 0.35 0.31 0.24 0.17 0.12 0.08 0.10 0.15 0.23 0.44 0.77 0.64 0.57 0.52 0.53 0.55
0.74 0.88 1.11 1.44 1.60 1.68 1.62 1.54 1.47 1.42 1.36 1.28 1.23 1.25 1.32 1.37 1.26 1.12 0.90 0.73 0.67 0.66 0.64 0.54 0.47 0.43 0.41 0.39 0.32 0.24 0.16 0.10 0.09 0.12 0.16 0.25 0.48 0.78 0.69 0.59 0.53 0.54 0.53
0.80 1.00 1.26 1.59 1.69 1.77 1.80 1.78 1.73 1.67 1.61 1.51 1.44 1.43 1.44 1.40 1.25 1.08 0.94 0.80 0.71 0.68 0.67 0.59 0.54 0.48 0.46 0.41 0.36 0.26 0.17 0.10 0.09 0.10 0.14 0.23 0.47 0.67 0.61 0.52 0.51 0.52 0.51
1.05 1.23 1.45 1.69 1.81 1.93 1.89 1.86 1.87 1.81 1.74 1.64 1.56 1.48 1.39 1.32 1.23 1.09 0.95 0.84 0.77 0.73 0.75 0.66 0.60 0.52 0.48 0.45 0.40 0.27 0.15 0.10 0.10 0.11 0.13 0.20 0.39 0.58 0.54 0.50 0.51 0.52 0.52
1.47 1.60 1.73 1.82 1.85 1.90 1.91 1.88 1.92 1.93 1.89 1.86 1.74 1.49 1.31 1.21 1.21 1.11 0.92 0.85 0.78 0.74 0.75 0.70 0.64 0.54 0.47 0.41 0.35 0.24 0.17 0.15 0.12 0.11 0.15 0.20 0.36 0.53 0.55 0.53 0.50 0.51 0.53
2.01 1.96 2.04 2.07 2.07 2.07 2.04 1.96 2.06 2.11 2.07 1.99 1.89 1.60 1.40 1.34 1.26 1.14 0.93 0.81 0.76 0.71 0.71 0.74 0.67 0.58 0.48 0.37 0.31 0.26 0.23 0.20 0.16 0.18 0.21 0.28 0.44 0.58 0.63 0.63 0.54 0.52 0.53
2.25 2.19 2.17 2.19 2.12 2.18 2.15 2.17 2.28 2.23 2.20 2.08 1.85 1.73 1.61 1.50 1.34 1.13 1.02 0.88 0.81 0.75 0.75 0.79 0.72 0.60 0.48 0.38 0.31 0.28 0.26 0.25 0.24 0.22 0.25 0.37 0.59 0.71 0.70 0.65 0.59 0.57 0.55
2.36 2.42 2.41 2.40 2.33 2.24 2.28 2.21 2.31 2.34 2.30 2.24 2.04 1.90 1.83 1.78 1.59 1.39 1.20 1.15 1.02 0.87 0.88 0.84 0.80 0.58 0.43 0.35 0.31 0.28 0.26 0.27 0.28 0.27 0.27 0.36 0.59 0.74 0.75 0.74 0.70 0.65 0.62
2.66 2.66 2.69 2.65 2.61 2.43 2.31 2.26 2.33 2.39 2.35 2.25 2.05 1.94 1.88 1.79 1.66 1.46 1.24 1.12 1.07 0.89 0.87 0.84 0.69 0.54 0.46 0.38 0.32 0.30 0.30 0.30 0.29 0.32 0.31 0.32 0.48 0.67 0.76 0.81 0.80 0.73 0.70
2.92 2.97 2.98 2.85 2.79 2.72 2.52 2.33 2.35 2.50 2.51 2.41 2.23 2.03 1.85 1.71 1.58 1.52 1.41 1.28 1.16 1.01 0.88 0.84 0.71 0.62 0.55 0.47 0.38 0.32 0.30 0.30 0.31 0.31 0.31 0.31 0.38 0.54 0.73 0.84 0.92 0.93 0.90
3.11 3.28 3.31 3.14 2.93 2.86 2.69 2.40 2.31 2.52 2.67 2.75 2.48 2.18 2.10 1.93 1.78 1.67 1.56 1.46 1.31 1.17 1.03 0.92 0.80 0.75 0.68 0.60 0.49 0.40 0.35 0.34 0.36 0.34 0.31 0.31 0.33 0.40 0.59 0.80 0.96 1.02 1.04
2.99 3.33 3.48 3.41 3.29 3.06 2.96 2.74 2.44 2.56 2.73 2.82 2.72 2.45 2.35 2.22 2.05 1.96 1.79 1.59 1.36 1.25 1.18 1.13 1.09 1.00 0.88 0.73 0.61 0.52 0.43 0.40 0.39 0.35 0.32 0.31 0.30 0.33 0.45 0.65 0.81 0.93 0.98
2.95 3.14 3.46 3.53 3.55 3.41 3.20 3.01 2.68 2.58 2.70 2.74 2.66 2.55 2.44 2.34 2.21 2.14 1.96 1.76 1.60 1.49 1.39 1.30 1.27 1.20 1.05 0.86 0.72 0.66 0.57 0.48 0.43 0.42 0.38 0.35 0.33 0.30 0.35 0.48 0.58 0.69 0.84
2.92 3.06 3.34 3.52 3.61 3.72 3.63 3.49 3.13 2.80 2.79 2.81 2.69 2.52 2.44 2.37 2.29 2.19 2.04 1.86 1.78 1.69 1.56 1.42 1.36 1.29 1.22 1.07 0.92 0.83 0.77 0.67 0.61 0.58 0.54 0.50 0.46 0.41 0.39 0.45 0.49 0.52 0.64
3.16 3.30 3.39 3.60 3.85 4.07 4.19 4.05 3.81 3.32 2.98 2.90 2.80 2.62 2.45 2.36 2.30 2.23 2.12 2.00 1.87 1.82 1.74 1.59 1.44 1.34 1.28 1.25 1.19 1.07 0.98 0.90 0.80 0.74 0.67 0.61 0.59 0.56 0.53 0.53 0.50 0.47 0.51
3.25 3.46 3.57 3.61 3.86 4.21 4.17 3.93 3.71 3.44 3.17 2.94 2.86 2.80 2.60 2.44 2.32 2.24 2.12 2.12 2.01 1.86 1.78 1.75 1.69 1.62 1.50 1.45 1.50 1.40 1.20 1.09 1.01 0.87 0.80 0.73 0.67 0.66 0.64 0.65 0.61 0.54 0.53
3.01 3.38 3.45 3.66 3.91 4.16 4.09 3.95 3.83 3.77 3.58 3.31 3.16 2.92 2.75 2.60 2.42 2.32 2.21 2.08 2.05 1.96 1.83 1.79 1.77 1.81 1.83 1.78 1.77 1.76 1.62 1.43 1.15 0.95 0.89 0.84 0.77 0.78 0.79 0.78 0.76 0.70 0.65
2.49 2.97 3.20 3.35 3.72 3.96 4.15 4.47 4.46 4.26 3.93 3.46 3.18 3.03 2.87 2.83 2.69 2.47 2.40 2.26 2.08 2.01 1.90 1.77 1.67 1.64 1.72 1.83 1.86 1.95 1.82 1.54 1.29 1.11 0.97 0.90 0.85 0.81 0.79 0.81 0.80 0.78 0.75
2.13 2.56 2.97 3.24 3.50 3.71 3.86 4.09 4.22 4.06 3.66 3.28 3.05 3.05 3.09 3.02 2.98 2.83 2.65 2.49 2.31 2.14 2.01 1.93 1.87 1.75 1.71 1.72 1.75 1.73 1.66 1.49 1.45 1.36 1.15 1.04 0.96 0.90 0.85 0.81 0.77 0.77 0.81
1.88 2.32 2.72 3.03 3.32 3.48 3.62 3.71 3.88 3.94 3.80 3.61 3.36 3.25 3.24 3.16 3.05 2.91 2.81 2.66 2.47 2.32 2.21 2.12 2.03 1.98 1.93 1.83 1.74 1.67 1.65 1.48 1.34 1.36 1.26 1.11 1.10 1.03 0.97 0.92 0.84 0.82 0.84
1.72 1.99 2.39 2.75 3.13 3.37 3.48 3.68 3.75 3.66 3.68 3.65 3.36 3.31 3.29 3.34 3.24 3.00 2.81 2.70 2.58 2.46 2.35 2.30 2.24 2.15 2.06 1.96 1.89 1.81 1.77 1.71 1.51 1.44 1.35 1.17 1.17 1.11 1.08 1.06 1.01 0.96 0.94